OPS 7613 (P/L 1)

Satellite information

Favourite Embed

Satellite Type and Status

PAYLOADIN ORBIT

Key statistics

Satellite OPS 7613 (P/L 1) at a glance.

Uptime

20528

Days in orbit

Revolutions

≈ 14.0

Per day

Orbit

LEO

Low Earth Orbit

Inclination

70.0

Latest

Satellite identification and parameters

Extended collection of information and parameters for OPS 7613 (P/L 1).

Object identification

Identified? True

Debris? False

Object name: OPS 7613 (P/L 1)

International designator: 1969-082B

Object number (NORAD): 4256

Object ID (CCSDS): 4256

Country: UNITED STATES OF AMERICA (US)

Current information (Y/N): Y

RCS size: MEDIUM

Orbital parameters

Period: 102.921 minutes

Inclination: 70.0104 deg

SMA: 7274.944 km

Apoapsis: 912.902 km

Periapsis: 880.716 km

RAAN: 6.4977 deg

Eccentricy: 0.00221216

Argument of periapsis: 304.3236 deg

Mean anomaly: 55.5778 deg

Mean motion: 13.99130712 rev/day

Mean motion (dot): 0.00000216 rev/day2

B* drag term: 0.00018541678 1/REarth

Two-line elements (TLE)

Creation date: Dec. 12, 2025, 10:14 a.m.

Reference frame: TEME

Reference center: EARTH

Epoch: Dec. 12, 2025, 6:58 a.m. UTC

TLE line 0: 0 OPS 7613 (P/L 1)

TLE line 1: 1 04256U 69082B 25346.29091977 .00000216 00000-0 18542-3 0 9998

TLE line 2: 2 04256 70.0104 6.4977 0022122 304.3236 55.5778 13.99130712864320

Live tracking on map

Real-time ground track for satellite OPS 7613 (P/L 1).

In-orbit conjunctions

There are no conjunctions computed for OPS 7613 (P/L 1), at the moment. Check back to stay up to date, as we update our databases every day.

Go to all conjunctions

Associated space launch

Poppy was the follow-on ELINT system, which succeeded the Grab ELINT satellite system.

OPS 7613 (P/L 1) was lifted into orbit during the mission ‘Thorad SLV-2G Agena D | Poppy 8A,B,C,D’, on board a Thorad SLV-2G Agena D space rocket.

The launch took place on Sept. 30, 1969, 1:40 p.m. from Space Launch Complex 1W.

For more information about the launch, click the button.

Launch to space Thorad SLV-2G Agena D | Poppy 8A,B,C,D
Thorad SLV-2G Agena D | Poppy 8A,B,C,D

Agency: N/A

Status: Launch Successful

Launch date: Sept. 30, 1969, 1:40 p.m. UTC

Rocket: Thorad SLV-2G Agena D

Launch pad: Space Launch Complex 1W

Location: Vandenberg SFB, CA, USA

...

Latest news about this satellite

There are no fresh news available about this satellite. Check back as we update our databases every day.


Newsletter sign-up

Weekly statistics, charts and insights to help you stay on top of the space industry.